SCP
-0 -0 -0 -0 -0 -0 -0 -0 -0 -0 -0 0 0 -0 0 0 0 0 0 0 0 0 0 0 0 0 0 0 0 0 0 0 0 0 0 0 0 0 0 0 0 0 0 0 0
0 0 -0 -0 -0 -0 -0 -0 -0 -0 -0 0 0 0 -0 -0 0 0 0 0 0 0 0 0 0 0 0 0 0 0 0 0 0 0 0 0 0 0 0 0 0 0 0 0 0
0 0 0 0 0 0 0 0 0 0 -0 -0 -0 -0 -0 -0 0 0 0 0 0 0 0 0 0 0 0 0 0 0 0 0 0 0 0 0 0 0 0 0 0 0 0 0 0
0 0 0 0 0 0 0 0 0 0 0 0 -0 -0 0 0 0 0 0 0 0 0 0 0 0 0 0 0 0 0 0 0 0 0 0 0 0 0 0 0 0 0 0 0 0
0 0 0 0 0 0 0 0 0 0 0 0 0 -0 0 0 0 0 0 0 0 0 0 0 0 0 0 0 0 0 0 0 0 0 0 0 0 0 0 0 0 0 0 0 0
0 0 0 0 0 0 0 0 0 0 0 0 0 0 0 0 0 0 0 0 0 0 0 0 0 0 0 0 0 0 0 0 0 0 0 0 0 0 0 0 0 0 0 0 0
0 0 0 0 0 0 0 0 0 0 0 0 0 0 0 0 0 0 0 0 0 0 0 0 0 0 0 0 0 0 0 0 0 0 0 0 0 0 0 0 0 0 0 0 0
0 0 0 0 0 0 0 0 0 0 0 0 0 0 0 0 0 0 0 0 0 0 0 0 0 0 0 0 0 0 0 0 0 0 0 0 0 0 0 0 0 0 0 0 0
0 0 0 0 0 0 0 0 0 0 0 0 0 0 0 0 0 0 0 0 0 0 0 0 0 0 0 0 0 0 0 0 0 0 0 0 0 0 0 0 0 0 0 0 0
0 0 0 0 0 0 0 0 0 0 0 0 0 0 0 0 0 0 0 0 0 0 0 0 0 0 0 0 0 0 0 0 0 0 0 0 0 0 0 0 0 0 0 0 0
0 0 0 0 0 0 0 0 0 0 0 0 0 0 0 0 0 0 0 0 0 0 0 0 0 0 0 0 0 0 0 0 0 0 0 0 0 0 0 0 0 0 0 0 0
0 0 0 0 0 0 0 0 0 0 0 0 0 0 0 0 0 0 0 0 0 0 0 0 0 0 0 0 0 0 0 0 0 0 0 0 0 0 0 0 0 0 0 0 0
0 0 0 0 0 0 0 0 0 0 0 0 0 0 0 0 0 0 0 0 0 0 0 0 0 0 0 0 0 0 0 0 0 0 0 0 0 0 0 0 0 0 0 0 0
0 0 0 0 0 0 0 0 0 0 0 0 0 0 0 0 0 0 0 0 0 0 0 0 0 0 0 0 0 0 0 0 0 0 0 0 0 0 0 0 0 0 0 0 0
0 0 0 0 0 0 0 0 0 0 0 0 0 0 0 0 0 0 0 0 0 0 0 0 0 0 0 0 0 0 0 0 0 0 0 0 0 0 0 0 -0 0 0 0 0
0 0 0 0 0 0 0 0 0 0 0 0 0 0 0 0 0 0 0 0 0 0 0 0 0 0 0 0 0 0 0 0 0 0 0 0 0 0 0 0 0 0 0 0 0
0 0 0 0 0 0 0 0 0 0 0 0 0 0 0 0 0 0 0 0 0 0 0 0 0 0 0 0 0 0 0 0 0 0 0 0 0 0 0 0 0 0 0 0 0
0 0 0 0 0 0 0 0 0 0 0 0 0 0 0 0 0 0 0 0 0 0 0 0 0 0 0 0 0 0 0 0 0 0 0 0 0 0 0 0 0 0 0 0 0
0 0 0 0 0 0 0 0 0 0 0 0 0 0 0 0 0 0 0 0 0 0 0 0 0 0 0 0 0 0 0 0 0 0 0 0 0 0 0 0 0 0 0 0 0
0 0 0 0 0 0 0 0 0 0 0 0 0 0 0 0 0 0 0 0 0 0 0 0 0 0 0 0 0 0 0 0 0 0 0 0 0 0 0 0 0 0 0 0 0
0 0 0 0 0 0 0 0 0 0 0 0 0 0 0 0 0 0 0 0 0 0 0 0 0 0 0 0 0 0 0 0 0 0 0 0 0 0 0 0 0 0 0 0 0
0 0 0 0 0 0 0 0 0 0 0 0 0 0 0 0 0 0 0 0 0 0 0 0 0 0 0 0 0 0 0 0 0 0 0 0 0 0 0 0 0 0 0 0 0
0 0 0 0 0 0 0 0 0 0 0 0 0 0 0 0 0 0 0 0 0 0 0 0 0 0 0 0 0 0 0 0 0 0 0 0 0 0 0 0 0 0 0 0 0
0 0 0 0 0 0 0 0 0 0 0 0 0 0 0 0 0 0 0 0 0 0 0 0 0 0 0 0 0 0 0 0 0 0 0 0 0 0 0 0 0 0 0 0 0
0 0 0 0 0 0 0 0 0 0 0 0 0 0 0 0 0 0 0 0 0 0 0 0 0 0 0 0 0 0 0 0 0 0 0 0 0 0 0 0 0 0 0 0 0
0 0 0 0 0 0 0 0 0 0 0 0 0 0 0 0 0 0 0 0 0 0 0 0 0 0 0 0 0 0 0 0 0 0 0 0 0 0 0 0 0 0 0 0 0
0 0 0 0 0 0 0 0 0 0 0 0 0 0 0 0 0 0 0 0 0 0 0 0 0 0 0 0 0 0 0 0 0 0 0 0 0 0 0 0 0 0 0 0 0
Wind_Speed_500mb
13 15 18 20 23 25 28 32 35 38 35 33 16 5 11 15 13 7 10 13 17 18 19 16 16 9 5 7 7 4 8 4 14 14 9 17 9 13 11 17 27 26 16 19 50
12 14 16 17 19 22 24 27 30 34 35 29 22 8 3 2 5 9 7 10 14 17 18 21 25 9 6 5 5 8 6 13 10 10 8 14 12 23 13 15 18 21 26 26 51
16 17 18 19 18 20 24 25 27 29 32 30 23 12 7 9 8 2 3 6 10 12 17 19 23 11 7 6 8 3 5 6 6 11 9 10 8 20 17 10 34 49 48 48 53
21 22 22 23 22 21 21 25 26 29 31 29 27 14 9 7 6 9 4 2 6 10 15 16 18 9 6 4 6 4 1 5 6 11 7 5 8 12 38 25 18 37 45 54 55
26 26 27 27 28 26 24 26 28 29 30 31 26 17 11 12 13 13 11 4 4 7 9 14 17 8 3 3 6 3 2 6 10 14 19 13 14 19 33 50 38 27 48 54 52
30 31 32 33 33 32 30 27 30 33 31 34 27 20 14 12 13 16 17 14 8 7 7 10 8 12 4 1 2 2 9 14 16 26 19 10 8 5 14 34 39 39 54 55 51
33 35 35 37 38 37 36 32 31 33 34 35 30 21 22 25 16 20 19 16 13 7 5 7 5 9 4 1 6 5 10 11 8 10 8 12 12 20 38 25 33 47 53 54 54
35 37 38 39 41 41 39 36 34 34 36 33 28 17 15 17 19 23 20 18 14 10 8 7 6 4 3 4 9 7 7 9 3 11 1 9 21 15 28 36 48 55 59 62 62
37 38 39 41 43 44 42 39 35 35 34 28 17 13 15 14 22 27 23 17 15 12 8 6 4 5 3 6 9 12 7 5 16 17 6 10 20 14 16 42 55 66 71 73 69
42 42 40 41 42 46 44 41 34 29 23 17 18 8 21 12 15 25 29 21 15 9 5 4 4 6 7 6 8 9 8 10 14 5 7 10 33 31 38 45 67 74 77 81 79
49 45 42 41 40 41 43 33 14 10 14 15 8 12 10 18 16 19 25 20 16 9 9 3 5 12 16 14 8 7 8 15 11 10 6 19 28 42 39 45 53 62 72 82 92
51 49 45 40 38 35 31 14 12 12 23 30 45 53 52 26 15 27 28 15 13 14 10 6 17 12 7 7 10 7 7 17 16 2 12 21 33 31 36 44 56 56 69 87 84
53 49 45 39 36 33 22 13 11 15 8 20 28 26 21 32 19 19 30 18 10 12 13 14 7 12 11 9 10 8 11 10 15 12 10 16 18 12 14 26 49 57 62 66 81
52 48 40 34 30 20 13 6 9 13 7 14 7 8 12 13 9 19 34 14 7 21 16 13 5 14 9 11 15 8 11 6 8 9 8 10 22 9 14 22 14 39 50 67 69
50 46 39 31 17 14 9 4 8 4 9 10 6 8 13 10 5 10 26 17 11 12 12 15 15 11 11 14 16 14 6 5 2 5 7 8 10 12 6 16 38 19 51 60 68
44 42 37 30 30 26 20 7 2 9 14 9 8 10 8 7 4 9 9 7 5 7 5 12 1 12 12 5 5 8 5 9 8 3 4 11 16 9 13 17 14 14 28 33 45
37 38 33 30 20 22 21 13 4 10 6 10 11 8 5 12 10 15 14 13 15 8 14 2 10 4 7 8 4 6 10 7 9 5 17 7 6 29 16 22 20 19 33 37 38
35 32 34 33 29 17 26 6 18 15 16 6 5 4 13 14 9 9 9 10 15 4 7 11 17 18 11 14 15 12 16 11 15 7 23 6 18 15 22 31 29 31 34 36 40
37 38 38 39 32 29 22 13 17 17 15 16 6 6 9 8 8 11 17 11 16 24 20 14 17 5 2 4 6 11 11 6 10 5 5 11 18 13 20 22 19 36 34 46 44
40 32 46 37 35 31 5 43 16 19 15 10 27 21 20 16 15 16 18 10 12 31 5 8 10 3 4 4 5 8 7 8 4 6 12 22 30 28 27 21 22 16 34 41 42
44 15 21 35 44 29 20 19 14 33 29 16 18 14 19 19 17 15 16 8 14 12 11 10 8 6 6 18 22 6 6 3 4 10 12 8 29 9 15 17 21 21 37 42 45
58 9 32 63 26 18 29 14 18 14 47 20 12 23 25 22 19 20 24 27 41 24 21 14 10 17 31 2 3 4 17 22 13 15 7 6 46 5 13 19 13 21 39 40 43
32 36 41 85 18 28 7 10 26 14 23 29 22 17 15 21 11 20 30 16 43 22 23 19 8 13 14 2 5 14 16 12 2 3 26 13 47 6 11 16 26 31 36 38 45
30 10 16 63 43 27 29 19 19 22 39 20 10 21 6 29 34 21 10 10 42 30 28 43 16 24 40 26 12 12 24 33 44 31 34 59 65 89 40 48 57 49 67 65 63
36 14 25 14 35 40 17 11 37 20 21 35 20 48 21 21 32 41 27 5 3 5 2 20 29 34 46 57 12 16 32 34 42 61 35 73 55 86 53 57 57 62 62 56 61
39 18 30 21 35 42 47 46 57 34 17 17 42 19 45 50 55 49 43 10 18 9 14 8 23 22 48 50 18 22 67 32 49 62 47 62 75 68 58 90 71 83 63 57 60
81 41 60 29 28 26 45 67 63 50 45 60 39 36 40 53 66 74 49 15 28 24 22 15 11 7 50 21 14 16 67 60 66 65 53 54 89 70 61 55 56 61 61 67 68
Wind_Direction_500mb
6 8 11 13 12 13 13 9 10 14 22 24 16 37 52 60 61 53 69 75 56 45 39 28 8 21 96 66 56 94 63 176 194 160 232 172 145 174 183 160 184 201 212 218 188
343 349 352 358 0 0 2 3 2 6 9 18 13 343 316 52 52 58 78 63 49 39 23 9 10 46 92 60 53 77 106 217 188 198 216 179 183 177 169 188 213 215 217 193 183
323 327 331 336 345 347 347 349 352 354 360 4 10 348 306 290 280 180 110 65 42 23 10 6 8 25 77 44 28 99 170 213 242 223 216 187 181 182 170 221 215 214 199 186 185
311 314 316 319 323 329 332 332 338 338 344 348 352 350 309 296 259 200 182 89 26 13 9 6 5 22 62 48 32 22 127 237 262 213 206 229 170 227 213 228 236 233 213 196 193
307 308 309 312 313 315 319 321 321 323 327 331 335 331 292 267 254 222 216 233 327 351 1 14 18 20 17 335 6 101 318 297 269 249 240 239 227 238 249 243 249 235 204 203 201
297 302 306 309 310 311 313 315 314 312 314 318 316 310 274 247 249 231 230 237 264 314 353 17 23 356 106 323 130 259 271 262 252 245 241 206 247 264 272 239 235 220 207 206 208
288 295 300 304 306 308 310 312 310 306 307 309 307 294 269 267 251 235 231 234 237 274 305 358 11 357 332 356 333 304 320 316 215 217 246 204 275 238 261 234 215 210 209 210 211
282 288 293 298 301 303 306 309 308 303 302 298 299 279 263 254 242 228 230 223 235 266 268 327 352 46 38 326 2 25 51 1 235 158 252 150 270 262 262 224 213 213 213 216 217
277 281 287 294 298 300 304 307 307 301 294 292 273 248 264 262 230 222 224 228 231 254 240 291 339 77 70 74 7 8 283 288 312 200 134 172 269 254 256 219 226 227 224 223 223
275 279 284 290 297 302 307 309 307 293 282 270 240 230 244 230 221 222 225 232 246 234 224 189 92 65 46 82 245 244 286 264 246 217 201 220 261 266 256 230 234 238 234 229 226
276 278 283 289 295 302 309 329 308 285 251 232 224 243 277 239 227 223 223 226 225 206 188 64 87 219 228 202 180 168 204 242 250 245 258 246 249 268 267 238 238 236 234 235 235
275 280 284 288 293 300 309 330 315 299 304 264 254 253 255 234 249 226 212 204 189 207 125 42 238 206 128 147 175 166 230 265 282 305 197 267 258 260 260 257 245 242 232 238 234
271 277 282 287 292 297 298 300 301 311 270 282 254 251 241 229 230 233 203 197 182 183 189 176 207 117 153 173 176 212 196 238 239 327 251 300 267 237 274 261 258 252 255 253 241
265 268 272 280 288 285 279 269 307 335 44 269 238 237 204 173 240 199 191 185 201 206 161 232 198 172 171 218 155 242 210 233 284 4 257 20 290 228 243 275 249 259 251 252 245
264 262 262 260 243 253 247 282 316 1 311 263 195 184 179 193 144 192 189 196 194 186 134 240 170 175 191 217 165 225 138 164 120 220 351 239 276 257 21 261 265 260 262 256 250
278 266 253 247 247 243 238 242 171 48 248 292 171 176 144 208 205 144 170 178 119 133 272 249 279 175 205 75 152 127 96 61 59 69 293 228 194 200 185 209 249 250 260 265 258
284 279 247 233 234 229 217 162 36 187 289 233 215 182 177 192 210 177 170 178 177 149 223 284 213 164 160 112 46 104 73 317 324 351 242 159 220 255 236 229 228 252 281 284 266
291 275 258 232 220 194 177 65 215 210 210 41 107 81 193 157 249 186 159 218 238 91 114 184 275 178 177 195 182 177 171 168 232 232 284 342 245 268 228 260 257 256 268 273 256
272 266 257 236 206 192 189 216 207 180 197 167 111 180 234 229 206 151 213 217 210 171 189 179 262 99 109 137 136 183 189 162 97 116 341 242 270 279 260 270 263 260 263 258 252
256 259 253 239 204 190 180 234 211 199 149 151 204 184 208 200 176 186 180 195 217 195 170 228 289 117 143 128 38 175 171 77 13 263 266 265 276 257 250 247 246 243 239 255 247
229 232 220 212 188 194 222 225 206 212 192 177 209 235 212 191 196 205 221 232 206 165 157 147 143 239 128 209 168 130 216 68 159 162 206 277 269 224 230 202 228 228 236 247 241
204 204 190 176 178 211 234 196 211 217 215 246 205 216 213 187 205 220 213 215 185 149 161 200 160 234 237 212 338 238 194 175 200 227 247 133 270 248 196 206 230 236 247 245 246
204 209 181 178 203 214 231 264 228 200 200 223 229 194 195 214 234 193 234 183 171 157 168 178 214 250 263 83 356 222 201 219 296 157 214 181 255 78 197 240 244 241 245 251 259
200 171 182 201 218 207 218 239 239 236 239 240 240 208 154 241 231 263 229 201 194 195 215 165 181 201 236 234 133 184 219 218 219 236 235 233 256 269 265 277 274 266 270 268 259
207 198 188 195 219 219 190 209 230 226 213 211 247 232 215 240 247 240 254 257 205 233 199 173 233 227 244 255 175 207 240 215 216 235 219 251 243 255 262 263 271 278 277 261 252
216 189 182 228 214 210 211 227 243 232 167 218 229 217 225 236 233 249 237 192 220 356 194 197 243 252 257 260 203 247 255 234 231 242 246 256 261 259 268 275 280 277 278 257 250
229 253 219 196 208 205 214 221 224 230 243 243 235 238 241 238 243 253 268 250 239 223 194 176 194 191 251 251 122 264 245 237 254 249 232 245 253 276 272 265 265 271 257 252 254
Wind_Speed_850mb
13 15 18 20 23 25 28 32 35 38 35 33 16 5 11 15 13 7 10 13 17 18 19 16 16 9 5 7 7 4 8 4 14 14 9 17 9 13 11 17 27 26 16 19 50
12 14 16 17 19 22 24 27 30 34 35 29 22 8 3 2 5 9 7 10 14 17 18 21 25 9 6 5 5 8 6 13 10 10 8 14 12 23 13 15 18 21 26 26 51
16 17 18 19 18 20 24 25 27 29 32 30 23 12 7 9 8 2 3 6 10 12 17 19 23 11 7 6 8 3 5 6 6 11 9 10 8 20 17 10 34 49 48 48 53
21 22 22 23 22 21 21 25 26 29 31 29 27 14 9 7 6 9 4 2 6 10 15 16 18 9 6 4 6 4 1 5 6 11 7 5 8 12 38 25 18 37 45 54 55
26 26 27 27 28 26 24 26 28 29 30 31 26 17 11 12 13 13 11 4 4 7 9 14 17 8 3 3 6 3 2 6 10 14 19 13 14 19 33 50 38 27 48 54 52
30 31 32 33 33 32 30 27 30 33 31 34 27 20 14 12 13 16 17 14 8 7 7 10 8 12 4 1 2 2 9 14 16 26 19 10 8 5 14 34 39 39 54 55 51
33 35 35 37 38 37 36 32 31 33 34 35 30 21 22 25 16 20 19 16 13 7 5 7 5 9 4 1 6 5 10 11 8 10 8 12 12 20 38 25 33 47 53 54 54
35 37 38 39 41 41 39 36 34 34 36 33 28 17 15 17 19 23 20 18 14 10 8 7 6 4 3 4 9 7 7 9 3 11 1 9 21 15 28 36 48 55 59 62 62
37 38 39 41 43 44 42 39 35 35 34 28 17 13 15 14 22 27 23 17 15 12 8 6 4 5 3 6 9 12 7 5 16 17 6 10 20 14 16 42 55 66 71 73 69
42 42 40 41 42 46 44 41 34 29 23 17 18 8 21 12 15 25 29 21 15 9 5 4 4 6 7 6 8 9 8 10 14 5 7 10 33 31 38 45 67 74 77 81 79
49 45 42 41 40 41 43 33 14 10 14 15 8 12 10 18 16 19 25 20 16 9 9 3 5 12 16 14 8 7 8 15 11 10 6 19 28 42 39 45 53 62 72 82 92
51 49 45 40 38 35 31 14 12 12 23 30 45 53 52 26 15 27 28 15 13 14 10 6 17 12 7 7 10 7 7 17 16 2 12 21 33 31 36 44 56 56 69 87 84
53 49 45 39 36 33 22 13 11 15 8 20 28 26 21 32 19 19 30 18 10 12 13 14 7 12 11 9 10 8 11 10 15 12 10 16 18 12 14 26 49 57 62 66 81
52 48 40 34 30 20 13 6 9 13 7 14 7 8 12 13 9 19 34 14 7 21 16 13 5 14 9 11 15 8 11 6 8 9 8 10 22 9 14 22 14 39 50 67 69
50 46 39 31 17 14 9 4 8 4 9 10 6 8 13 10 5 10 26 17 11 12 12 15 15 11 11 14 16 14 6 5 2 5 7 8 10 12 6 16 38 19 51 60 68
44 42 37 30 30 26 20 7 2 9 14 9 8 10 8 7 4 9 9 7 5 7 5 12 1 12 12 5 5 8 5 9 8 3 4 11 16 9 13 17 14 14 28 33 45
37 38 33 30 20 22 21 13 4 10 6 10 11 8 5 12 10 15 14 13 15 8 14 2 10 4 7 8 4 6 10 7 9 5 17 7 6 29 16 22 20 19 33 37 38
35 32 34 33 29 17 26 6 18 15 16 6 5 4 13 14 9 9 9 10 15 4 7 11 17 18 11 14 15 12 16 11 15 7 23 6 18 15 22 31 29 31 34 36 40
37 38 38 39 32 29 22 13 17 17 15 16 6 6 9 8 8 11 17 11 16 24 20 14 17 5 2 4 6 11 11 6 10 5 5 11 18 13 20 22 19 36 34 46 44
40 32 46 37 35 31 5 43 16 19 15 10 27 21 20 16 15 16 18 10 12 31 5 8 10 3 4 4 5 8 7 8 4 6 12 22 30 28 27 21 22 16 34 41 42
44 15 21 35 44 29 20 19 14 33 29 16 18 14 19 19 17 15 16 8 14 12 11 10 8 6 6 18 22 6 6 3 4 10 12 8 29 9 15 17 21 21 37 42 45
58 9 32 63 26 18 29 14 18 14 47 20 12 23 25 22 19 20 24 27 41 24 21 14 10 17 31 2 3 4 17 22 13 15 7 6 46 5 13 19 13 21 39 40 43
32 36 41 85 18 28 7 10 26 14 23 29 22 17 15 21 11 20 30 16 43 22 23 19 8 13 14 2 5 14 16 12 2 3 26 13 47 6 11 16 26 31 36 38 45
30 10 16 63 43 27 29 19 19 22 39 20 10 21 6 29 34 21 10 10 42 30 28 43 16 24 40 26 12 12 24 33 44 31 34 59 65 89 40 48 57 49 67 65 63
36 14 25 14 35 40 17 11 37 20 21 35 20 48 21 21 32 41 27 5 3 5 2 20 29 34 46 57 12 16 32 34 42 61 35 73 55 86 53 57 57 62 62 56 61
39 18 30 21 35 42 47 46 57 34 17 17 42 19 45 50 55 49 43 10 18 9 14 8 23 22 48 50 18 22 67 32 49 62 47 62 75 68 58 90 71 83 63 57 60
81 41 60 29 28 26 45 67 63 50 45 60 39 36 40 53 66 74 49 15 28 24 22 15 11 7 50 21 14 16 67 60 66 65 53 54 89 70 61 55 56 61 61 67 68
Wind_Direction_850mb
6 8 11 13 12 13 13 9 10 14 22 24 16 37 52 60 61 53 69 75 56 45 39 28 8 21 96 66 56 94 63 176 194 160 232 172 145 174 183 160 184 201 212 218 188
343 349 352 358 0 0 2 3 2 6 9 18 13 343 316 52 52 58 78 63 49 39 23 9 10 46 92 60 53 77 106 217 188 198 216 179 183 177 169 188 213 215 217 193 183
323 327 331 336 345 347 347 349 352 354 360 4 10 348 306 290 280 180 110 65 42 23 10 6 8 25 77 44 28 99 170 213 242 223 216 187 181 182 170 221 215 214 199 186 185
311 314 316 319 323 329 332 332 338 338 344 348 352 350 309 296 259 200 182 89 26 13 9 6 5 22 62 48 32 22 127 237 262 213 206 229 170 227 213 228 236 233 213 196 193
307 308 309 312 313 315 319 321 321 323 327 331 335 331 292 267 254 222 216 233 327 351 1 14 18 20 17 335 6 101 318 297 269 249 240 239 227 238 249 243 249 235 204 203 201
297 302 306 309 310 311 313 315 314 312 314 318 316 310 274 247 249 231 230 237 264 314 353 17 23 356 106 323 130 259 271 262 252 245 241 206 247 264 272 239 235 220 207 206 208
288 295 300 304 306 308 310 312 310 306 307 309 307 294 269 267 251 235 231 234 237 274 305 358 11 357 332 356 333 304 320 316 215 217 246 204 275 238 261 234 215 210 209 210 211
282 288 293 298 301 303 306 309 308 303 302 298 299 279 263 254 242 228 230 223 235 266 268 327 352 46 38 326 2 25 51 1 235 158 252 150 270 262 262 224 213 213 213 216 217
277 281 287 294 298 300 304 307 307 301 294 292 273 248 264 262 230 222 224 228 231 254 240 291 339 77 70 74 7 8 283 288 312 200 134 172 269 254 256 219 226 227 224 223 223
275 279 284 290 297 302 307 309 307 293 282 270 240 230 244 230 221 222 225 232 246 234 224 189 92 65 46 82 245 244 286 264 246 217 201 220 261 266 256 230 234 238 234 229 226
276 278 283 289 295 302 309 329 308 285 251 232 224 243 277 239 227 223 223 226 225 206 188 64 87 219 228 202 180 168 204 242 250 245 258 246 249 268 267 238 238 236 234 235 235
275 280 284 288 293 300 309 330 315 299 304 264 254 253 255 234 249 226 212 204 189 207 125 42 238 206 128 147 175 166 230 265 282 305 197 267 258 260 260 257 245 242 232 238 234
271 277 282 287 292 297 298 300 301 311 270 282 254 251 241 229 230 233 203 197 182 183 189 176 207 117 153 173 176 212 196 238 239 327 251 300 267 237 274 261 258 252 255 253 241
265 268 272 280 288 285 279 269 307 335 44 269 238 237 204 173 240 199 191 185 201 206 161 232 198 172 171 218 155 242 210 233 284 4 257 20 290 228 243 275 249 259 251 252 245
264 262 262 260 243 253 247 282 316 1 311 263 195 184 179 193 144 192 189 196 194 186 134 240 170 175 191 217 165 225 138 164 120 220 351 239 276 257 21 261 265 260 262 256 250
278 266 253 247 247 243 238 242 171 48 248 292 171 176 144 208 205 144 170 178 119 133 272 249 279 175 205 75 152 127 96 61 59 69 293 228 194 200 185 209 249 250 260 265 258
284 279 247 233 234 229 217 162 36 187 289 233 215 182 177 192 210 177 170 178 177 149 223 284 213 164 160 112 46 104 73 317 324 351 242 159 220 255 236 229 228 252 281 284 266
291 275 258 232 220 194 177 65 215 210 210 41 107 81 193 157 249 186 159 218 238 91 114 184 275 178 177 195 182 177 171 168 232 232 284 342 245 268 228 260 257 256 268 273 256
272 266 257 236 206 192 189 216 207 180 197 167 111 180 234 229 206 151 213 217 210 171 189 179 262 99 109 137 136 183 189 162 97 116 341 242 270 279 260 270 263 260 263 258 252
256 259 253 239 204 190 180 234 211 199 149 151 204 184 208 200 176 186 180 195 217 195 170 228 289 117 143 128 38 175 171 77 13 263 266 265 276 257 250 247 246 243 239 255 247
229 232 220 212 188 194 222 225 206 212 192 177 209 235 212 191 196 205 221 232 206 165 157 147 143 239 128 209 168 130 216 68 159 162 206 277 269 224 230 202 228 228 236 247 241
204 204 190 176 178 211 234 196 211 217 215 246 205 216 213 187 205 220 213 215 185 149 161 200 160 234 237 212 338 238 194 175 200 227 247 133 270 248 196 206 230 236 247 245 246
204 209 181 178 203 214 231 264 228 200 200 223 229 194 195 214 234 193 234 183 171 157 168 178 214 250 263 83 356 222 201 219 296 157 214 181 255 78 197 240 244 241 245 251 259
200 171 182 201 218 207 218 239 239 236 239 240 240 208 154 241 231 263 229 201 194 195 215 165 181 201 236 234 133 184 219 218 219 236 235 233 256 269 265 277 274 266 270 268 259
207 198 188 195 219 219 190 209 230 226 213 211 247 232 215 240 247 240 254 257 205 233 199 173 233 227 244 255 175 207 240 215 216 235 219 251 243 255 262 263 271 278 277 261 252
216 189 182 228 214 210 211 227 243 232 167 218 229 217 225 236 233 249 237 192 220 356 194 197 243 252 257 260 203 247 255 234 231 242 246 256 261 259 268 275 280 277 278 257 250
229 253 219 196 208 205 214 221 224 230 243 243 235 238 241 238 243 253 268 250 239 223 194 176 194 191 251 251 122 264 245 237 254 249 232 245 253 276 272 265 265 271 257 252 254